Year,Month,Day,Hour,Minute,Value (Times are PST for temperature in C)
2014,08,22,00,00,12.70
2014,08,22,00,01,12.70
2014,08,22,00,02,12.70
2014,08,22,00,03,12.70
2014,08,22,00,04,12.70
2014,08,22,00,05,12.70
2014,08,22,00,06,12.70
2014,08,22,00,07,12.70
2014,08,22,00,08,12.70
2014,08,22,00,09,12.70
2014,08,22,00,10,12.70
2014,08,22,00,11,12.70
2014,08,22,00,12,12.70
2014,08,22,00,13,12.70
2014,08,22,00,14,12.70
2014,08,22,00,15,12.60
2014,08,22,00,16,12.60
2014,08,22,00,17,12.60
2014,08,22,00,18,12.60
2014,08,22,00,19,12.60
2014,08,22,00,20,12.60
2014,08,22,00,21,12.60
2014,08,22,00,22,12.60
2014,08,22,00,23,12.60
2014,08,22,00,24,12.60
2014,08,22,00,25,12.60
2014,08,22,00,26,12.60
2014,08,22,00,27,12.50
2014,08,22,00,28,12.50
2014,08,22,00,29,12.50
2014,08,22,00,30,12.50
2014,08,22,00,31,12.40
2014,08,22,00,32,12.40
2014,08,22,00,33,12.40
2014,08,22,00,34,12.40
2014,08,22,00,35,12.40
2014,08,22,00,36,12.40
2014,08,22,00,37,12.40
2014,08,22,00,38,12.40
2014,08,22,00,39,12.40
2014,08,22,00,40,12.40
2014,08,22,00,41,12.30
2014,08,22,00,42,12.30
2014,08,22,00,43,12.30
2014,08,22,00,44,12.30
2014,08,22,00,45,12.30
2014,08,22,00,46,12.30
2014,08,22,00,47,12.20
2014,08,22,00,48,12.20
2014,08,22,00,49,12.20
2014,08,22,00,50,12.20
2014,08,22,00,51,12.20
2014,08,22,00,52,12.20
2014,08,22,00,53,12.20
2014,08,22,00,54,12.20
2014,08,22,00,55,12.20
2014,08,22,00,56,12.20
2014,08,22,00,57,12.20
2014,08,22,00,58,12.20
2014,08,22,00,59,12.20
2014,08,22,01,00,12.20
2014,08,22,01,01,12.20
2014,08,22,01,02,12.10
2014,08,22,01,03,12.10
2014,08,22,01,04,12.10
2014,08,22,01,05,12.10
2014,08,22,01,06,12.10
2014,08,22,01,07,12.10
2014,08,22,01,08,12.10
2014,08,22,01,09,12.10
2014,08,22,01,10,12.10
2014,08,22,01,11,12.10
2014,08,22,01,12,12.00
2014,08,22,01,13,12.00
2014,08,22,01,14,12.00
2014,08,22,01,15,12.00
2014,08,22,01,16,12.00
2014,08,22,01,17,12.00
2014,08,22,01,18,12.00
2014,08,22,01,19,12.00
2014,08,22,01,20,12.00
2014,08,22,01,21,11.90
2014,08,22,01,22,12.00
2014,08,22,01,23,12.00
2014,08,22,01,24,12.00
2014,08,22,01,25,12.00
2014,08,22,01,26,12.00
2014,08,22,01,27,12.00
2014,08,22,01,28,12.00
2014,08,22,01,29,12.00
2014,08,22,01,30,12.00
2014,08,22,01,31,12.00
2014,08,22,01,32,12.00
2014,08,22,01,33,12.00
2014,08,22,01,34,12.00
2014,08,22,01,35,12.00
2014,08,22,01,36,12.00
2014,08,22,01,37,11.90
2014,08,22,01,38,11.90
2014,08,22,01,39,11.90
2014,08,22,01,40,11.90
2014,08,22,01,41,11.90
2014,08,22,01,42,11.90
2014,08,22,01,43,11.90
2014,08,22,01,44,11.90
2014,08,22,01,45,11.90
2014,08,22,01,46,11.90
2014,08,22,01,47,11.90
2014,08,22,01,48,11.90
2014,08,22,01,49,11.90
2014,08,22,01,50,11.90
2014,08,22,01,51,11.90
2014,08,22,01,52,11.90
2014,08,22,01,53,11.90
2014,08,22,01,54,11.90
2014,08,22,01,55,11.90
2014,08,22,01,56,11.90
2014,08,22,01,57,11.90
2014,08,22,01,58,11.90
2014,08,22,01,59,11.90
2014,08,22,02,00,11.90
2014,08,22,02,01,11.90
2014,08,22,02,02,11.90
2014,08,22,02,03,11.90
2014,08,22,02,04,11.90
2014,08,22,02,05,11.90
2014,08,22,02,06,11.90
2014,08,22,02,07,11.90
2014,08,22,02,08,11.90
2014,08,22,02,09,11.90
2014,08,22,02,10,11.90
2014,08,22,02,11,11.90
2014,08,22,02,12,11.90
2014,08,22,02,13,11.90
2014,08,22,02,14,11.90
2014,08,22,02,15,11.90
2014,08,22,02,16,11.90
2014,08,22,02,17,11.90
2014,08,22,02,18,11.90
2014,08,22,02,19,11.90
2014,08,22,02,20,11.90
2014,08,22,02,21,11.90
2014,08,22,02,22,11.90
2014,08,22,02,23,11.90
2014,08,22,02,24,11.90
2014,08,22,02,25,11.90
2014,08,22,02,26,11.90
2014,08,22,02,27,11.80
2014,08,22,02,28,11.80
2014,08,22,02,29,11.80
2014,08,22,02,30,11.80
2014,08,22,02,31,11.80
2014,08,22,02,32,11.80
2014,08,22,02,33,11.80
2014,08,22,02,34,11.80
2014,08,22,02,35,11.80
2014,08,22,02,36,11.80
2014,08,22,02,37,11.80
2014,08,22,02,38,11.80
2014,08,22,02,39,11.80
2014,08,22,02,40,11.80
2014,08,22,02,41,11.70
2014,08,22,02,42,11.70
2014,08,22,02,43,11.70
2014,08,22,02,44,11.70
2014,08,22,02,45,11.70
2014,08,22,02,46,11.70
2014,08,22,02,47,11.70
2014,08,22,02,48,11.70
2014,08,22,02,49,11.60
2014,08,22,02,50,11.60
2014,08,22,02,51,11.60
2014,08,22,02,52,11.60
2014,08,22,02,53,11.50
2014,08,22,02,54,11.50
2014,08,22,02,55,11.50
2014,08,22,02,56,11.50
2014,08,22,02,57,11.50
2014,08,22,02,58,11.50
2014,08,22,02,59,11.50
2014,08,22,03,00,11.50
2014,08,22,03,01,11.50
2014,08,22,03,02,11.50
2014,08,22,03,03,11.50
2014,08,22,03,04,11.40
2014,08,22,03,05,11.40
2014,08,22,03,06,11.40
2014,08,22,03,07,11.40
2014,08,22,03,08,11.40
2014,08,22,03,09,11.30
2014,08,22,03,10,11.30
2014,08,22,03,11,11.30
2014,08,22,03,12,11.40
2014,08,22,03,13,11.40
2014,08,22,03,14,11.40
2014,08,22,03,15,11.40
2014,08,22,03,16,11.40
2014,08,22,03,17,11.40
2014,08,22,03,18,11.40
2014,08,22,03,19,11.30
2014,08,22,03,20,11.30
2014,08,22,03,21,11.30
2014,08,22,03,22,11.30
2014,08,22,03,23,11.30
2014,08,22,03,24,11.30
2014,08,22,03,25,11.20
2014,08,22,03,26,11.20
2014,08,22,03,27,11.20
2014,08,22,03,28,11.20
2014,08,22,03,29,11.20
2014,08,22,03,30,11.20
2014,08,22,03,31,11.20
2014,08,22,03,32,11.20
2014,08,22,03,33,11.20
2014,08,22,03,34,11.30
2014,08,22,03,35,11.30
2014,08,22,03,36,11.30
2014,08,22,03,37,11.30
2014,08,22,03,38,11.20
2014,08,22,03,39,11.20
2014,08,22,03,40,11.20
2014,08,22,03,41,11.20
2014,08,22,03,42,11.20
2014,08,22,03,43,11.20
2014,08,22,03,44,11.20
2014,08,22,03,45,11.20
2014,08,22,03,46,11.20
2014,08,22,03,47,11.20
2014,08,22,03,48,11.20
2014,08,22,03,49,11.10
2014,08,22,03,50,11.10
2014,08,22,03,51,11.10
2014,08,22,03,52,11.10
2014,08,22,03,53,11.10
2014,08,22,03,54,11.10
2014,08,22,03,55,11.10
2014,08,22,03,56,11.10
2014,08,22,03,57,11.10
2014,08,22,03,58,11.10
2014,08,22,03,59,11.10
2014,08,22,04,00,11.10
2014,08,22,04,01,11.10
2014,08,22,04,02,11.10
2014,08,22,04,03,11.10
2014,08,22,04,04,11.10
2014,08,22,04,05,11.10
2014,08,22,04,06,11.10
2014,08,22,04,07,11.10
2014,08,22,04,08,11.10
2014,08,22,04,09,11.10
2014,08,22,04,10,11.10
2014,08,22,04,11,11.10
2014,08,22,04,12,11.10
2014,08,22,04,13,11.10
2014,08,22,04,14,11.10
2014,08,22,04,15,11.10
2014,08,22,04,16,11.10
2014,08,22,04,17,11.10
2014,08,22,04,18,11.10
2014,08,22,04,19,11.10
2014,08,22,04,20,11.10
2014,08,22,04,21,11.10
2014,08,22,04,22,11.10
2014,08,22,04,23,11.10
2014,08,22,04,24,11.10
2014,08,22,04,25,11.10
2014,08,22,04,26,11.10
2014,08,22,04,27,11.10
2014,08,22,04,28,11.10
2014,08,22,04,29,11.10
2014,08,22,04,30,11.00
2014,08,22,04,31,11.00
2014,08,22,04,32,11.00
2014,08,22,04,33,11.00
2014,08,22,04,34,11.00
2014,08,22,04,35,11.00
2014,08,22,04,36,11.00
2014,08,22,04,37,11.00
2014,08,22,04,38,11.10
2014,08,22,04,39,11.10
2014,08,22,04,40,11.10
2014,08,22,04,41,11.10
2014,08,22,04,42,11.10
2014,08,22,04,43,11.10
2014,08,22,04,44,11.10
2014,08,22,04,45,11.10
2014,08,22,04,46,11.10
2014,08,22,04,47,11.10
2014,08,22,04,48,11.10
2014,08,22,04,49,11.10
2014,08,22,04,50,11.10
2014,08,22,04,51,11.10
2014,08,22,04,52,11.00
2014,08,22,04,53,11.00
2014,08,22,04,54,11.00
2014,08,22,04,55,11.00
2014,08,22,04,56,11.00
2014,08,22,04,57,11.00
2014,08,22,04,58,11.00
2014,08,22,04,59,11.10
2014,08,22,05,00,11.10
2014,08,22,05,01,11.10
2014,08,22,05,02,11.10
2014,08,22,05,03,11.10
2014,08,22,05,04,11.10
2014,08,22,05,05,11.10
2014,08,22,05,06,11.20
2014,08,22,05,07,11.20
2014,08,22,05,08,11.20
2014,08,22,05,09,11.20
2014,08,22,05,10,11.20
2014,08,22,05,11,11.20
2014,08,22,05,12,11.20
2014,08,22,05,13,11.20
2014,08,22,05,14,11.20
2014,08,22,05,15,11.20
2014,08,22,05,16,11.20
2014,08,22,05,17,11.20
2014,08,22,05,18,11.20
2014,08,22,05,19,11.10
2014,08,22,05,20,11.10
2014,08,22,05,21,11.10
2014,08,22,05,22,11.10
2014,08,22,05,23,11.10
2014,08,22,05,24,11.10
2014,08,22,05,25,11.10
2014,08,22,05,26,11.10
2014,08,22,05,27,11.10
2014,08,22,05,28,11.10
2014,08,22,05,29,11.10
2014,08,22,05,30,11.10
2014,08,22,05,31,11.10
2014,08,22,05,32,11.00
2014,08,22,05,33,11.00
2014,08,22,05,34,10.90
2014,08,22,05,35,10.90
2014,08,22,05,36,10.90
2014,08,22,05,37,10.80
2014,08,22,05,38,10.80
2014,08,22,05,39,10.80
2014,08,22,05,40,10.80
2014,08,22,05,41,10.70
2014,08,22,05,42,10.70
2014,08,22,05,43,10.70
2014,08,22,05,44,10.70
2014,08,22,05,45,10.70
2014,08,22,05,46,10.70
2014,08,22,05,47,10.70
2014,08,22,05,48,10.70
2014,08,22,05,49,10.70
2014,08,22,05,50,10.70
2014,08,22,05,51,10.70
2014,08,22,05,52,10.70
2014,08,22,05,53,10.70
2014,08,22,05,54,10.70
2014,08,22,05,55,10.70
2014,08,22,05,56,10.70
2014,08,22,05,57,10.70
2014,08,22,05,58,10.70
2014,08,22,05,59,10.70
2014,08,22,06,00,10.70
2014,08,22,06,01,10.70
2014,08,22,06,02,10.70
2014,08,22,06,03,10.70
2014,08,22,06,04,10.70
2014,08,22,06,05,10.70
2014,08,22,06,06,10.70
2014,08,22,06,07,10.70
2014,08,22,06,08,10.60
2014,08,22,06,09,10.60
2014,08,22,06,10,10.60
2014,08,22,06,11,10.60
2014,08,22,06,12,10.60
2014,08,22,06,13,10.60
2014,08,22,06,14,10.60
2014,08,22,06,15,10.60
2014,08,22,06,16,10.60
2014,08,22,06,17,10.60
2014,08,22,06,18,10.60
2014,08,22,06,19,10.60
2014,08,22,06,20,10.60
2014,08,22,06,21,10.60
2014,08,22,06,22,10.60
2014,08,22,06,23,10.60
2014,08,22,06,24,10.60
2014,08,22,06,25,10.60
2014,08,22,06,26,10.60
2014,08,22,06,27,10.70
2014,08,22,06,28,10.70
2014,08,22,06,29,10.70
2014,08,22,06,30,10.70
2014,08,22,06,31,10.70
2014,08,22,06,32,10.70
2014,08,22,06,33,10.70
2014,08,22,06,34,10.70
2014,08,22,06,35,10.70
2014,08,22,06,36,10.70
2014,08,22,06,37,10.70
2014,08,22,06,38,10.70
2014,08,22,06,39,10.70
2014,08,22,06,40,10.70
2014,08,22,06,41,10.70
2014,08,22,06,42,10.70
2014,08,22,06,43,10.70
2014,08,22,06,44,10.70
2014,08,22,06,45,10.70
2014,08,22,06,46,10.70
2014,08,22,06,47,10.70
2014,08,22,06,48,10.70
2014,08,22,06,49,10.70
2014,08,22,06,50,10.70
2014,08,22,06,51,10.70
2014,08,22,06,52,10.70
2014,08,22,06,53,10.70
2014,08,22,06,54,10.70
2014,08,22,06,55,10.80
2014,08,22,06,56,10.80
2014,08,22,06,57,10.80
2014,08,22,06,58,10.80
2014,08,22,06,59,10.90
2014,08,22,07,00,10.90
2014,08,22,07,01,10.90
2014,08,22,07,02,11.00
2014,08,22,07,03,11.00
2014,08,22,07,04,11.10
2014,08,22,07,05,11.10
2014,08,22,07,06,11.20
2014,08,22,07,07,11.20
2014,08,22,07,08,11.20
2014,08,22,07,09,11.30
2014,08,22,07,10,11.30
2014,08,22,07,11,11.30
2014,08,22,07,12,11.30
2014,08,22,07,13,11.40
2014,08,22,07,14,11.40
2014,08,22,07,15,11.40
2014,08,22,07,16,11.40
2014,08,22,07,17,11.50
2014,08,22,07,18,11.50
2014,08,22,07,19,11.50
2014,08,22,07,20,11.60
2014,08,22,07,21,11.60
2014,08,22,07,22,11.70
2014,08,22,07,23,11.70
2014,08,22,07,24,11.80
2014,08,22,07,25,11.80
2014,08,22,07,26,11.90
2014,08,22,07,27,11.90
2014,08,22,07,28,12.00
2014,08,22,07,29,12.00
2014,08,22,07,30,12.10
2014,08,22,07,31,12.10
2014,08,22,07,32,12.10
2014,08,22,07,33,12.10
2014,08,22,07,34,12.10
2014,08,22,07,35,12.20
2014,08,22,07,36,12.20
2014,08,22,07,37,12.30
2014,08,22,07,38,12.30
2014,08,22,07,39,12.30
2014,08,22,07,40,12.30
2014,08,22,07,41,12.40
2014,08,22,07,42,12.40
2014,08,22,07,43,12.50
2014,08,22,07,44,12.60
2014,08,22,07,45,12.70
2014,08,22,07,46,12.70
2014,08,22,07,47,12.80
2014,08,22,07,48,12.80
2014,08,22,07,49,12.90
2014,08,22,07,50,12.90
2014,08,22,07,51,12.90
2014,08,22,07,52,13.00
2014,08,22,07,53,13.00
2014,08,22,07,54,13.10
2014,08,22,07,55,13.10
2014,08,22,07,56,13.10
2014,08,22,07,57,13.10
2014,08,22,07,58,13.20
2014,08,22,07,59,13.20
2014,08,22,08,00,13.30
2014,08,22,08,01,13.40
2014,08,22,08,02,13.50
2014,08,22,08,03,13.50
2014,08,22,08,04,13.60
2014,08,22,08,05,13.60
2014,08,22,08,06,13.60
2014,08,22,08,07,13.60
2014,08,22,08,08,13.60
2014,08,22,08,09,13.60
2014,08,22,08,10,13.60
2014,08,22,08,11,13.70
2014,08,22,08,12,13.70
2014,08,22,08,13,13.70
2014,08,22,08,14,13.70
2014,08,22,08,15,13.70
2014,08,22,08,16,13.80
2014,08,22,08,17,13.80
2014,08,22,08,18,13.80
2014,08,22,08,19,13.90
2014,08,22,08,20,13.90
2014,08,22,08,21,13.90
2014,08,22,08,22,13.90
2014,08,22,08,23,14.00
2014,08,22,08,24,14.00
2014,08,22,08,25,14.10
2014,08,22,08,26,14.10
2014,08,22,08,27,14.10
2014,08,22,08,28,14.20
2014,08,22,08,29,14.30
2014,08,22,08,30,14.30
2014,08,22,08,31,14.40
2014,08,22,08,32,14.40
2014,08,22,08,33,14.40
2014,08,22,08,34,14.50
2014,08,22,08,35,14.60
2014,08,22,08,36,14.60
2014,08,22,08,37,14.70
2014,08,22,08,38,14.80
2014,08,22,08,39,14.80
2014,08,22,08,40,14.90
2014,08,22,08,41,15.00
2014,08,22,08,42,15.00
2014,08,22,08,43,15.10
2014,08,22,08,44,15.20
2014,08,22,08,45,15.20
2014,08,22,08,46,15.30
2014,08,22,08,47,15.30
2014,08,22,08,48,15.30
2014,08,22,08,49,15.40
2014,08,22,08,50,15.40
2014,08,22,08,51,15.40
2014,08,22,08,52,15.50
2014,08,22,08,53,15.60
2014,08,22,08,54,15.60
2014,08,22,08,55,15.70
2014,08,22,08,56,15.70
2014,08,22,08,57,15.80
2014,08,22,08,58,15.90
2014,08,22,08,59,16.00
2014,08,22,09,00,16.00
2014,08,22,09,01,16.10
2014,08,22,09,02,16.10
2014,08,22,09,03,16.10
2014,08,22,09,04,16.20
2014,08,22,09,05,16.20
2014,08,22,09,06,16.30
2014,08,22,09,07,16.40
2014,08,22,09,08,16.40
2014,08,22,09,09,16.40
2014,08,22,09,10,16.50
2014,08,22,09,11,16.50
2014,08,22,09,12,16.60
2014,08,22,09,13,16.60
2014,08,22,09,14,16.60
2014,08,22,09,15,16.70
2014,08,22,09,16,16.70
2014,08,22,09,17,16.70
2014,08,22,09,18,16.70
2014,08,22,09,19,16.80
2014,08,22,09,20,16.90
2014,08,22,09,21,16.90
2014,08,22,09,22,17.00
2014,08,22,09,23,17.10
2014,08,22,09,24,17.10
2014,08,22,09,25,17.10
2014,08,22,09,26,17.10
2014,08,22,09,27,17.20
2014,08,22,09,28,17.20
2014,08,22,09,29,17.30
2014,08,22,09,30,17.30
2014,08,22,09,31,17.40
2014,08,22,09,32,17.50
2014,08,22,09,33,17.50
2014,08,22,09,34,17.60
2014,08,22,09,35,17.70
2014,08,22,09,36,17.70
2014,08,22,09,37,17.80
2014,08,22,09,38,17.80
2014,08,22,09,39,17.90
2014,08,22,09,40,17.90
2014,08,22,09,41,18.00
2014,08,22,09,42,18.10
2014,08,22,09,43,18.20
2014,08,22,09,44,18.30
2014,08,22,09,45,18.30
2014,08,22,09,46,18.40
2014,08,22,09,47,18.50
2014,08,22,09,48,18.50
2014,08,22,09,49,18.60
2014,08,22,09,50,18.70
2014,08,22,09,51,18.80
2014,08,22,09,52,19.00
2014,08,22,09,53,19.00
2014,08,22,09,54,19.10
2014,08,22,09,55,19.20
2014,08,22,09,56,19.20
2014,08,22,09,57,19.20
2014,08,22,09,58,19.20
2014,08,22,09,59,19.20
2014,08,22,10,00,19.30
2014,08,22,10,01,19.30
2014,08,22,10,02,19.20
2014,08,22,10,03,19.30
2014,08,22,10,04,19.20
2014,08,22,10,05,19.10
2014,08,22,10,06,19.10
2014,08,22,10,07,19.10
2014,08,22,10,08,19.10
2014,08,22,10,09,19.00
2014,08,22,10,10,18.90
2014,08,22,10,11,18.90
2014,08,22,10,12,18.80
2014,08,22,10,13,18.80
2014,08,22,10,14,18.90
2014,08,22,10,15,18.90
2014,08,22,10,16,18.90
2014,08,22,10,17,18.90
2014,08,22,10,18,18.90
2014,08,22,10,19,19.00
2014,08,22,10,20,19.00
2014,08,22,10,21,19.00
2014,08,22,10,22,19.00
2014,08,22,10,23,19.10
2014,08,22,10,24,19.10
2014,08,22,10,25,19.20
2014,08,22,10,26,19.20
2014,08,22,10,27,19.20
2014,08,22,10,28,19.20
2014,08,22,10,29,19.20
2014,08,22,10,30,19.20
2014,08,22,10,31,19.20
2014,08,22,10,32,19.20
2014,08,22,10,33,19.30
2014,08,22,10,34,19.30
2014,08,22,10,35,19.30
2014,08,22,10,36,19.40
2014,08,22,10,37,19.40
2014,08,22,10,38,19.30
2014,08,22,10,39,19.30
2014,08,22,10,40,19.20
2014,08,22,10,41,19.20
2014,08,22,10,42,19.20
2014,08,22,10,43,19.20
2014,08,22,10,44,19.30
2014,08,22,10,45,19.30
2014,08,22,10,46,19.30
2014,08,22,10,47,19.40
2014,08,22,10,48,19.50
2014,08,22,10,49,19.50
2014,08,22,10,50,19.50
2014,08,22,10,51,19.60
2014,08,22,10,52,19.70
2014,08,22,10,53,19.80
2014,08,22,10,54,19.80
2014,08,22,10,55,19.90
2014,08,22,10,56,20.00
2014,08,22,10,57,20.10
2014,08,22,10,58,20.10
2014,08,22,10,59,20.00
2014,08,22,11,00,19.90
2014,08,22,11,01,19.80
2014,08,22,11,02,19.80
2014,08,22,11,03,19.70
2014,08,22,11,04,19.70
2014,08,22,11,05,19.80
2014,08,22,11,06,19.80
2014,08,22,11,07,19.90
2014,08,22,11,08,19.90
2014,08,22,11,09,19.80
2014,08,22,11,10,19.80
2014,08,22,11,11,19.90
2014,08,22,11,12,19.90
2014,08,22,11,13,19.90
2014,08,22,11,14,19.80
2014,08,22,11,15,19.80
2014,08,22,11,16,19.80
2014,08,22,11,17,19.80
2014,08,22,11,18,19.80
2014,08,22,11,19,19.90
2014,08,22,11,20,19.90
2014,08,22,11,21,19.80
2014,08,22,11,22,19.80
2014,08,22,11,23,19.70
2014,08,22,11,24,19.80
2014,08,22,11,25,19.80
2014,08,22,11,26,19.90
2014,08,22,11,27,20.00
2014,08,22,11,28,20.00
2014,08,22,11,29,20.10
2014,08,22,11,30,20.10
2014,08,22,11,31,20.10
2014,08,22,11,32,20.10
2014,08,22,11,33,20.10
2014,08,22,11,34,20.10
2014,08,22,11,35,20.10
2014,08,22,11,36,20.10
2014,08,22,11,37,20.10
2014,08,22,11,38,20.10
2014,08,22,11,39,20.10
2014,08,22,11,40,20.20
2014,08,22,11,41,20.20
2014,08,22,11,42,20.30
2014,08,22,11,43,20.40
2014,08,22,11,44,20.50
2014,08,22,11,45,20.50
2014,08,22,11,46,20.60
2014,08,22,11,47,20.50
2014,08,22,11,48,20.40
2014,08,22,11,49,20.30
2014,08,22,11,50,20.20
2014,08,22,11,51,20.20
2014,08,22,11,52,20.20
2014,08,22,11,53,20.40
2014,08,22,11,54,20.50
2014,08,22,11,55,20.60
2014,08,22,11,56,20.70
2014,08,22,11,57,20.70
2014,08,22,11,58,20.70
2014,08,22,11,59,20.70
2014,08,22,12,00,20.70
2014,08,22,12,01,20.80
2014,08,22,12,02,20.80
2014,08,22,12,03,20.80
2014,08,22,12,04,20.90
2014,08,22,12,05,20.90
2014,08,22,12,06,20.90
2014,08,22,12,07,20.70
2014,08,22,12,08,20.50
2014,08,22,12,09,20.30
2014,08,22,12,10,20.20
2014,08,22,12,11,20.10
2014,08,22,12,12,20.00
2014,08,22,12,13,20.00
2014,08,22,12,14,19.90
2014,08,22,12,15,19.90
2014,08,22,12,16,19.90
2014,08,22,12,17,19.90
2014,08,22,12,18,19.90
2014,08,22,12,19,20.00
2014,08,22,12,20,20.00
2014,08,22,12,21,20.00
2014,08,22,12,22,20.10
2014,08,22,12,23,20.10
2014,08,22,12,24,20.10
2014,08,22,12,25,20.10
2014,08,22,12,26,20.00
2014,08,22,12,27,20.10
2014,08,22,12,28,20.00
2014,08,22,12,29,20.00
2014,08,22,12,30,20.00
2014,08,22,12,31,19.90
2014,08,22,12,32,20.00
2014,08,22,12,33,20.10
2014,08,22,12,34,20.10
2014,08,22,12,35,20.10
2014,08,22,12,36,20.20
2014,08,22,12,37,20.30
2014,08,22,12,38,20.30
2014,08,22,12,39,20.40
2014,08,22,12,40,20.50
2014,08,22,12,41,20.50
2014,08,22,12,42,20.50
2014,08,22,12,43,20.30
2014,08,22,12,44,20.20
2014,08,22,12,45,20.10
2014,08,22,12,46,20.10
2014,08,22,12,47,20.10
2014,08,22,12,48,20.10
2014,08,22,12,49,20.10
2014,08,22,12,50,20.20
2014,08,22,12,51,20.20
2014,08,22,12,52,20.20
2014,08,22,12,53,20.30
2014,08,22,12,54,20.30
2014,08,22,12,55,20.20
2014,08,22,12,56,20.20
2014,08,22,12,57,20.10
2014,08,22,12,58,20.10
2014,08,22,12,59,20.10
2014,08,22,13,00,20.10
2014,08,22,13,01,20.10
2014,08,22,13,02,20.10
2014,08,22,13,03,20.20
2014,08,22,13,04,20.20
2014,08,22,13,05,20.30
2014,08,22,13,06,20.30
2014,08,22,13,07,20.30
2014,08,22,13,08,20.40
2014,08,22,13,09,20.50
2014,08,22,13,10,20.70
2014,08,22,13,11,20.80
2014,08,22,13,12,21.00
2014,08,22,13,13,21.10
2014,08,22,13,14,21.20
2014,08,22,13,15,21.30
2014,08,22,13,16,21.40
2014,08,22,13,17,21.50
2014,08,22,13,18,21.50
2014,08,22,13,19,21.50
2014,08,22,13,20,21.50
2014,08,22,13,21,21.50
2014,08,22,13,22,21.30
2014,08,22,13,23,21.00
2014,08,22,13,24,20.90
2014,08,22,13,25,20.70
2014,08,22,13,26,20.70
2014,08,22,13,27,20.70
2014,08,22,13,28,20.70
2014,08,22,13,29,20.70
2014,08,22,13,30,20.80
2014,08,22,13,31,20.80
2014,08,22,13,32,20.90
2014,08,22,13,33,20.80
2014,08,22,13,34,20.80
2014,08,22,13,35,20.80
2014,08,22,13,36,20.80
2014,08,22,13,37,20.90
2014,08,22,13,38,20.90
2014,08,22,13,39,20.90
2014,08,22,13,40,20.80
2014,08,22,13,41,20.80
2014,08,22,13,42,20.80
2014,08,22,13,43,20.80
2014,08,22,13,44,20.80
2014,08,22,13,45,20.70
2014,08,22,13,46,20.60
2014,08,22,13,47,20.70
2014,08,22,13,48,20.80
2014,08,22,13,49,20.80
2014,08,22,13,50,20.80
2014,08,22,13,51,20.90
2014,08,22,13,52,21.00
2014,08,22,13,53,21.20
2014,08,22,13,54,21.30
2014,08,22,13,55,21.40
2014,08,22,13,56,21.50
2014,08,22,13,57,21.50
2014,08,22,13,58,21.50
2014,08,22,13,59,21.40
2014,08,22,14,00,21.40
2014,08,22,14,01,21.40
2014,08,22,14,02,21.50
2014,08,22,14,03,21.60
2014,08,22,14,04,21.80
2014,08,22,14,05,22.00
2014,08,22,14,06,22.10
2014,08,22,14,07,22.10
2014,08,22,14,08,22.00
2014,08,22,14,09,22.10
2014,08,22,14,10,22.10
2014,08,22,14,11,22.10
2014,08,22,14,12,22.20
2014,08,22,14,13,22.20
2014,08,22,14,14,22.10
2014,08,22,14,15,21.90
2014,08,22,14,16,21.80
2014,08,22,14,17,21.70
2014,08,22,14,18,21.70
2014,08,22,14,19,21.70
2014,08,22,14,20,21.70
2014,08,22,14,21,21.80
2014,08,22,14,22,21.80
2014,08,22,14,23,21.90
2014,08,22,14,24,22.00
2014,08,22,14,25,22.10
2014,08,22,14,26,22.20
2014,08,22,14,27,22.20
2014,08,22,14,28,22.20
2014,08,22,14,29,22.00
2014,08,22,14,30,21.90
2014,08,22,14,31,21.80
2014,08,22,14,32,21.80
2014,08,22,14,33,21.90
2014,08,22,14,34,22.00
2014,08,22,14,35,22.00
2014,08,22,14,36,22.10
2014,08,22,14,37,22.10
2014,08,22,14,38,22.20
2014,08,22,14,39,22.20
2014,08,22,14,40,22.30
2014,08,22,14,41,22.30
2014,08,22,14,42,22.30
2014,08,22,14,43,22.30
2014,08,22,14,44,22.30
2014,08,22,14,45,22.30
2014,08,22,14,46,22.30
2014,08,22,14,47,22.30
2014,08,22,14,48,22.20
2014,08,22,14,49,22.20
2014,08,22,14,50,22.20
2014,08,22,14,51,22.20
2014,08,22,14,52,22.20
2014,08,22,14,53,22.10
2014,08,22,14,54,22.00
2014,08,22,14,55,21.90
2014,08,22,14,56,21.90
2014,08,22,14,57,21.90
2014,08,22,14,58,21.90
2014,08,22,14,59,22.10
2014,08,22,15,00,22.20
2014,08,22,15,01,22.40
2014,08,22,15,02,22.50
2014,08,22,15,03,22.70
2014,08,22,15,04,22.80
2014,08,22,15,05,22.80
2014,08,22,15,06,22.80
2014,08,22,15,07,22.70
2014,08,22,15,08,22.60
2014,08,22,15,09,22.40
2014,08,22,15,10,22.30
2014,08,22,15,11,22.20
2014,08,22,15,12,22.20
2014,08,22,15,13,22.20
2014,08,22,15,14,22.10
2014,08,22,15,15,22.10
2014,08,22,15,16,22.00
2014,08,22,15,17,22.00
2014,08,22,15,18,21.90
2014,08,22,15,19,22.00
2014,08,22,15,20,21.90
2014,08,22,15,21,21.90
2014,08,22,15,22,21.90
2014,08,22,15,23,21.80
2014,08,22,15,24,21.80
2014,08,22,15,25,21.80
2014,08,22,15,26,21.80
2014,08,22,15,27,21.80
2014,08,22,15,28,21.70
2014,08,22,15,29,21.70
2014,08,22,15,30,21.70
2014,08,22,15,31,21.70
2014,08,22,15,32,21.70
2014,08,22,15,33,21.70
2014,08,22,15,34,21.70
2014,08,22,15,35,21.70
2014,08,22,15,36,21.70
2014,08,22,15,37,21.70
2014,08,22,15,38,21.70
2014,08,22,15,39,21.70
2014,08,22,15,40,21.80
2014,08,22,15,41,21.80
2014,08,22,15,42,21.80
2014,08,22,15,43,21.90
2014,08,22,15,44,21.80
2014,08,22,15,45,21.80
2014,08,22,15,46,21.90
2014,08,22,15,47,21.90
2014,08,22,15,48,21.90
2014,08,22,15,49,21.90
2014,08,22,15,50,21.90
2014,08,22,15,51,21.90
2014,08,22,15,52,21.90
2014,08,22,15,53,21.90
2014,08,22,15,54,21.90
2014,08,22,15,55,21.80
2014,08,22,15,56,21.80
2014,08,22,15,57,21.70
2014,08,22,15,58,21.70
2014,08,22,15,59,21.70
2014,08,22,16,00,21.70
2014,08,22,16,01,21.70
2014,08,22,16,02,21.70
2014,08,22,16,03,21.70
2014,08,22,16,04,21.80
2014,08,22,16,05,21.80
2014,08,22,16,06,21.80
2014,08,22,16,07,21.90
2014,08,22,16,08,21.80
2014,08,22,16,09,21.80
2014,08,22,16,10,21.80
2014,08,22,16,11,21.80
2014,08,22,16,12,21.80
2014,08,22,16,13,21.70
2014,08,22,16,14,21.70
2014,08,22,16,15,21.60
2014,08,22,16,16,21.60
2014,08,22,16,17,21.50
2014,08,22,16,18,21.50
2014,08,22,16,19,21.40
2014,08,22,16,20,21.40
2014,08,22,16,21,21.40
2014,08,22,16,22,21.40
2014,08,22,16,23,21.40
2014,08,22,16,24,21.40
2014,08,22,16,25,21.40
2014,08,22,16,26,21.50
2014,08,22,16,27,21.60
2014,08,22,16,28,21.60
2014,08,22,16,29,21.60
2014,08,22,16,30,21.70
2014,08,22,16,31,21.70
2014,08,22,16,32,21.70
2014,08,22,16,33,21.70
2014,08,22,16,34,21.70
2014,08,22,16,35,21.70
2014,08,22,16,36,21.70
2014,08,22,16,37,21.70
2014,08,22,16,38,21.70
2014,08,22,16,39,21.70
2014,08,22,16,40,21.70
2014,08,22,16,41,21.70
2014,08,22,16,42,21.70
2014,08,22,16,43,21.70
2014,08,22,16,44,21.70
2014,08,22,16,45,21.70
2014,08,22,16,46,21.80
2014,08,22,16,47,21.70
2014,08,22,16,48,21.70
2014,08,22,16,49,21.70
2014,08,22,16,50,21.80
2014,08,22,16,51,21.80
2014,08,22,16,52,21.90
2014,08,22,16,53,22.00
2014,08,22,16,54,22.10
2014,08,22,16,55,22.20
2014,08,22,16,56,22.30
2014,08,22,16,57,22.40
2014,08,22,16,58,22.40
2014,08,22,16,59,22.50
2014,08,22,17,00,22.40
2014,08,22,17,01,22.30
2014,08,22,17,02,22.20
2014,08,22,17,03,22.20
2014,08,22,17,04,22.20
2014,08,22,17,05,22.20
2014,08,22,17,06,22.20
2014,08,22,17,07,22.20
2014,08,22,17,08,22.20
2014,08,22,17,09,22.30
2014,08,22,17,10,22.30
2014,08,22,17,11,22.40
2014,08,22,17,12,22.50
2014,08,22,17,13,22.60
2014,08,22,17,14,22.70
2014,08,22,17,15,22.70
2014,08,22,17,16,22.90
2014,08,22,17,17,22.90
2014,08,22,17,18,23.00
2014,08,22,17,19,23.10